Flag for France Weather past 2 weeks in Saint-Denis, France

Now
32 °F

Clear.


Feels Like: 32 °F
Forecast: 36 / 57 °F
Wind: No wind

Location: Paris Le Bourget Airport

Current Time: Mar 6, 2015 at 4:12:00 AM

Latest Report: Mar 6, 2015 at 3:30 AM


Visibility: N/A

Pressure: 30.66 "Hg

Humidity: 87%

Dew point: 28 °F

Location of Saint-DenisLocation

Historic Weather in Saint-Denis — Graph

°F

Saint-Denis temperature yesterday

Maximum temperature yesterday: 52 °F (at 2:00 PM)
Minimum temperature yesterday: 32 °F (at 6:30 AM)
Average temperature yesterday: 42 °F

Past Weeks' High & Low Weather Summary

 TemperatureHumidityPressure
High54 °F (Feb 23, 2:00 PM)100% (Feb 19, 4:30 AM)30.74 "Hg (Feb 19, 4:30 AM)
Low28 °F (Feb 28, 5:30 AM)41% (Mar 5, 4:00 PM)29.42 "Hg (Feb 23, 6:30 AM)
Average43 °F78%30.01 "Hg
* Reported Feb 19 3:00 AM — Mar 6 3:00 AM, Saint-Denis, Weather by CustomWeather, © 2015

Note: Actual official high and low records may vary slightly from our data, if they occured in-between our weather recording intervals... More about our weather records

Advertising

Saint-Denis weather history for previous 24 hours

 ConditionsComfort  
Time TempWeatherWind HumidityBarometerVisibility
3:00 AM
Fri, Mar 6
32 °FClear.2 mph93%30.69 "HgN/A
2:30 AM34 °FClear.3 mph87%30.69 "HgN/A
2:00 AM34 °FClear.3 mph93%30.69 "HgN/A
1:30 AM34 °FClear.1 mph93%30.69 "HgN/A
1:00 AM36 °FClear.No wind87%30.69 "HgN/A
12:30 AM36 °FClear.No wind87%30.69 "HgN/A
12:00 AM36 °FClear.2 mph87%30.69 "HgN/A
11:30 PM
Thu, Mar 5
37 °FClear.No wind81%30.69 "HgN/A
11:00 PM37 °FClear.No wind75%30.69 "HgN/A
10:30 PM39 °FClear.2 mph75%30.69 "HgN/A
10:00 PM41 °FClear.2 mph76%30.69 "HgN/A
9:30 PM41 °FClear.3 mph70%30.69 "HgN/A
9:00 PM43 °FClear.3 mph71%30.69 "HgN/A
8:30 PM43 °FClear.3 mph66%30.69 "HgN/A
8:00 PM45 °FClear.3 mph61%30.69 "HgN/A
7:30 PM46 °FClear.2 mph53%30.69 "HgN/A
7:00 PM48 °FClear.3 mph54%30.69 "HgN/A
6:30 PM48 °FClear.2 mph50%30.66 "HgN/A
6:00 PM50 °FClear.6 mph47%30.66 "HgN/A
5:30 PM52 °FClear.8 mph44%30.66 "HgN/A
5:00 PM52 °FClear.9 mph41%30.66 "HgN/A
4:30 PM52 °FClear.7 mph44%30.66 "HgN/A
4:00 PM52 °FClear.6 mph41%30.66 "HgN/A
3:30 PM52 °FClear.7 mph44%30.66 "HgN/A
3:00 PM52 °FClear.6 mph47%30.66 "HgN/A
2:30 PM50 °FClear.8 mph50%30.69 "HgN/A
2:00 PM52 °FClear.9 mph47%30.69 "HgN/A
1:30 PM50 °FClear.7 mph50%30.69 "HgN/A
1:00 PM50 °FClear.8 mph50%30.72 "HgN/A
12:30 PM48 °FClear.5 mph58%30.72 "HgN/A
12:00 PM48 °FClear.6 mph62%30.72 "HgN/A
11:30 AM46 °FClear.7 mph66%30.72 "HgN/A
11:00 AM46 °FClear.8 mph71%30.72 "HgN/A
10:30 AM45 °FClear.6 mph76%30.72 "HgN/A
10:00 AM43 °FClear.8 mph81%30.72 "HgN/A
9:30 AM39 °FClear.2 mph93%30.74 "HgN/A
9:00 AM36 °FClear.1 mph100%30.74 "Hg5 mi
8:30 AM34 °FClear.1 mph93%30.72 "Hg5 mi
8:00 AM32 °FClear.2 mph100%30.72 "Hg5 mi
7:30 AM32 °FIce fog.1 mph93%30.72 "Hg1 mi
7:00 AM32 °FFog.1 mph93%30.72 "Hg1 mi
6:30 AM32 °FFog.No wind93%30.72 "Hg0 mi
6:00 AM34 °FClear.No wind93%30.69 "HgN/A
5:30 AM34 °FClear.2 mph87%30.69 "Hg6 mi
5:00 AM34 °FClear.3 mph93%30.69 "HgN/A
4:30 AM34 °FClear.No wind93%30.69 "HgN/A
4:00 AM34 °FClear.3 mph93%30.69 "HgN/A
Weather by CustomWeather, © 2015

See weather overviewHow to use our weather pages